Volver al catálogo

OTTER

ActivoCienciaSSO
NORAD 62623·PAYLOAD·🇺🇸 United States

Lanzado Jan 14, 2025 desde Vandenberg Space Force Base

Loading…

Próximos Pases (próximas 24 horas)

TLE

ActualizadoSource: Space-Track

Época: Sep 13, 2026, 04:48 UTC

1 62623U 25009Q   26256.20067900  .00006631  00000-0  22166-3 0  9996
2 62623  97.3984 338.0947 0004538  17.1725 342.9669 15.31331374 92380

Sigue OTTER en tiempo real con AllMySat

Download on the App Store